CW5102 Weather Reports


Display with metric or nautical units.
time (UTC)temp
F
wind
direction
speed
MPH
gust
MPH
rain 1hr
in
rain 24hr
in
rain mn
in
humidity
%
barometer
mb
20260902154703 73 279 0.0 0.0 0.00 0.02 0.02 91 1012.1
20260902154204 73 134 0.0 0.0 0.00 0.02 0.02 91 1012.0
20260902153703 73 215 0.0 0.0 0.00 0.02 0.02 92 1012.0
20260902153204 72 215 0.0 0.0 0.00 0.02 0.02 93 1011.9
20260902152703 72 241 0.0 0.0 0.00 0.02 0.02 94 1011.9
20260902151703 72 120 0.0 0.0 0.00 0.02 0.02 96 1011.9
20260902150204 71 181 0.0 0.0 0.00 0.02 0.02 98 1011.9
20260902145203 70 240 0.0 0.0 0.00 0.02 0.02 100 1011.9
20260902144703 70 118 0.0 0.0 0.00 0.02 0.02 100 1011.9
20260902144203 70 113 0.0 0.0 0.00 0.02 0.02 100 1011.9
20260902143203 69 76 0.0 0.0 0.00 0.02 0.02 100 1012.1
20260902142705 69 100 0.0 0.0 0.00 0.02 0.02 100 1012.2
20260902141203 68 113 0.0 0.0 0.00 0.02 0.02 100 1012.3
20260902140703 68 113 0.0 0.0 0.00 0.02 0.02 100 1012.2
20260902140203 67 117 0.0 0.0 0.00 0.02 0.02 100 1012.1
20260902135703 67 117 0.0 0.0 0.00 0.02 0.02 100 1012.1
20260902135203 67 117 0.0 0.0 0.00 0.02 0.02 100 1012.1
20260902134703 67 139 0.0 0.0 0.00 0.02 0.02 100 1012.2
20260902134204 67 154 0.0 0.0 0.00 0.02 0.02 100 1012.3
20260902133703 67 158 0.0 0.0 0.00 0.02 0.02 100 1012.3
20260902133203 67 116 0.0 0.0 0.00 0.02 0.02 100 1012.3
20260902132703 67 23 0.0 0.0 0.00 0.02 0.02 100 1012.3
20260902132203 67 23 0.0 0.0 0.00 0.02 0.02 100 1012.3
20260902131703 67 23 0.0 0.0 0.00 0.02 0.02 100 1012.3
20260902131203 66 23 0.0 0.0 0.00 0.02 0.02 100 1012.3
20260902130704 66 24 0.0 0.0 0.00 0.02 0.02 100 1012.3
20260902130203 66 305 0.0 0.0 0.00 0.02 0.02 100 1012.3
20260902125704 66 305 0.0 0.0 0.00 0.02 0.02 100 1012.3
20260902125204 66 305 0.0 0.0 0.00 0.02 0.02 100 1012.2
20260902124203 66 305 0.0 0.0 0.00 0.02 0.02 100 1012.3
20260902123703 66 305 0.0 0.0 0.00 0.02 0.02 100 1012.3
20260902123203 66 305 0.0 0.0 0.00 0.02 0.02 100 1012.2
20260902122704 66 305 0.0 0.0 0.00 0.02 0.02 100 1012.2
20260902122204 66 305 0.0 0.0 0.00 0.02 0.02 100 1012.3
20260902121703 66 307 0.0 0.0 0.00 0.02 0.02 100 1012.3
20260902121203 66 307 0.0 0.0 0.00 0.02 0.02 100 1012.2
20260902120703 66 307 0.0 0.0 0.00 0.02 0.02 100 1012.1
20260902120203 66 307 0.0 0.0 0.00 0.02 0.02 99 1012.0
20260902115704 66 307 0.0 0.0 0.00 0.02 0.02 99 1012.0
20260902115204 66 307 0.0 0.0 0.00 0.02 0.02 99 1012.1
20260902114703 66 307 0.0 0.0 0.00 0.02 0.02 98 1012.1
20260902114203 66 307 0.0 0.0 0.00 0.02 0.02 98 1012.2
20260902113204 66 307 0.0 0.0 0.00 0.02 0.02 97 1012.2
20260902112703 66 307 0.0 0.0 0.00 0.02 0.02 96 1012.4
20260902112203 66 307 0.0 0.0 0.00 0.02 0.02 96 1012.5
20260902111703 66 307 0.0 0.0 0.00 0.02 0.02 96 1012.6
20260902111203 66 307 0.0 0.0 0.00 0.02 0.02 96 1012.6
20260902110704 66 307 0.0 0.0 0.00 0.02 0.02 95 1012.3
20260902110203 66 307 0.0 0.0 0.00 0.02 0.02 95 1012.4
20260902105704 66 307 0.0 0.0 0.00 0.02 0.02 95 1012.5
20260902105204 66 307 0.0 0.0 0.00 0.02 0.02 96 1012.7
20260902104703 66 307 0.0 0.0 0.00 0.02 0.02 95 1012.6
20260902104204 66 307 0.0 0.0 0.00 0.02 0.02 95 1012.6
20260902103703 66 307 0.0 0.0 0.00 0.02 0.02 95 1012.8
20260902103204 66 308 0.0 0.0 0.00 0.02 0.02 94 1012.8
20260902102704 66 308 0.0 0.0 0.00 0.02 0.02 94 1013.1
20260902102203 66 289 0.0 0.0 0.00 0.02 0.02 94 1012.8
20260902101704 66 289 0.0 0.0 0.00 0.02 0.02 94 1012.8
20260902101203 66 289 0.0 0.0 0.00 0.02 0.02 93 1012.8
20260902100703 66 289 0.0 0.0 0.00 0.02 0.02 93 1012.9
20260902100203 66 289 0.0 0.0 0.00 0.02 0.02 93 1013.0
20260902095703 66 289 0.0 0.0 0.00 0.02 0.02 93 1012.7
20260902095203 66 276 0.0 0.0 0.00 0.02 0.02 93 1012.6
20260902094704 66 209 0.0 0.0 0.00 0.02 0.02 92 1012.5
20260902094203 66 208 0.0 0.0 0.00 0.02 0.02 92 1012.3
20260902093703 66 191 0.0 0.0 0.00 0.02 0.02 92 1012.2
20260902093203 66 209 0.0 0.0 0.00 0.02 0.02 91 1012.1
20260902092703 66 249 0.0 0.0 0.00 0.02 0.02 91 1011.7
20260902092204 66 218 0.0 0.0 0.00 0.02 0.02 91 1011.5
20260902091703 66 195 0.0 0.0 0.00 0.02 0.02 91 1011.1
20260902091204 66 143 0.0 0.0 0.00 0.02 0.02 90 1010.7
20260902090704 66 117 0.0 0.0 0.00 0.02 0.02 90 1010.7
20260902090203 66 56 0.0 0.0 0.00 0.02 0.02 89 1010.7
20260902085705 66 78 0.0 0.0 0.00 0.02 0.02 89 1010.9
20260902084705 67 86 0.0 0.0 0.00 0.02 0.02 88 1011.0
20260902084203 67 124 0.0 0.0 0.00 0.02 0.02 89 1010.8
20260902082204 67 113 0.0 0.0 0.00 0.02 0.02 88 1011.3
20260902081703 68 113 0.0 0.0 0.00 0.02 0.02 88 1011.6
20260902080703 68 112 0.0 0.0 0.01 0.02 0.02 87 1012.0
20260902080202 68 153 0.0 0.0 0.01 0.02 0.02 87 1011.8
20260902075702 68 158 0.0 0.0 0.01 0.02 0.02 87 1011.8
20260902075202 69 157 0.0 0.0 0.01 0.02 0.02 87 1011.8
20260902074702 69 155 0.0 0.0 0.01 0.02 0.02 86 1012.1
20260902074202 69 155 0.0 0.0 0.01 0.02 0.02 86 1012.1
20260902073703 69 155 0.0 0.0 0.01 0.02 0.02 86 1012.0
20260902073202 69 155 0.0 0.0 0.02 0.02 0.02 85 1011.6
20260902072703 69 162 0.0 0.0 0.02 0.02 0.02 86 1011.3
20260902072202 69 120 0.0 0.0 0.02 0.02 0.02 85 1011.4
20260902071702 69 155 0.0 0.0 0.02 0.02 0.02 84 1011.6
20260902071203 69 200 0.0 0.0 0.01 0.01 0.01 84 1011.8
20260902070702 69 201 0.0 0.0 0.01 0.01 0.01 82 1012.3
20260902070202 69 201 0.0 0.0 0.01 0.01 0.01 81 1012.8
20260902065702 69 201 0.0 0.0 0.01 0.01 0.01 80 1013.1
20260902065202 69 201 0.0 0.0 0.01 0.01 0.01 79 1013.4
20260902064702 70 201 0.0 0.0 0.01 0.01 0.01 78 1013.8
20260902064202 70 211 0.0 0.0 0.01 0.01 0.01 77 1014.0
20260902063703 70 327 0.0 0.0 0.01 0.01 0.01 74 1013.7
20260902063202 71 20 0.0 0.0 0.00 0.00 0.00 70 1013.4
20260902062702 71 20 0.0 0.0 0.00 0.00 0.00 69 1013.5
20260902062202 71 20 0.0 0.0 0.00 0.00 0.00 67 1013.5
20260902061702 71 20 0.0 0.0 0.00 0.00 0.00 69 1013.5
20260902060702 71 20 0.0 0.0 0.00 0.00 0.00 69 1013.2
20260902060202 71 20 0.0 0.0 0.00 0.00 0.00 68 1012.9
20260902055702 71 20 0.0 0.0 0.00 0.00 0.00 68 1012.5
20260902055203 71 20 0.0 0.0 0.00 0.00 0.00 67 1012.3
20260902054703 71 20 0.0 0.0 0.00 0.00 0.00 66 1011.8
20260902054202 71 20 0.0 0.0 0.00 0.00 0.00 67 1011.9
20260902053702 71 20 0.0 0.0 0.00 0.00 0.00 68 1012.1
20260902053202 71 20 0.0 0.0 0.00 0.00 0.00 67 1012.0
20260902052702 71 20 0.0 0.0 0.00 0.00 0.00 66 1012.3
20260902052202 71 20 0.0 0.0 0.00 0.00 0.00 65 1012.6
20260902051703 71 20 0.0 0.0 0.00 0.00 0.00 65 1012.8
20260902051202 71 20 0.0 0.0 0.00 0.00 0.00 65 1013.0
20260902050703 71 20 0.0 0.0 0.00 0.00 0.00 66 1013.0
20260902050202 71 20 0.0 0.0 0.00 0.00 0.00 67 1013.2
20260902045703 71 20 0.0 0.0 0.00 0.00 0.00 66 1013.0
20260902045202 72 20 0.0 0.0 0.00 0.00 0.00 67 1012.8
20260902044702 72 20 0.0 0.0 0.00 0.00 0.00 67 1012.7
20260902043202 72 20 0.0 0.0 0.00 0.00 0.00 65 1012.3
20260902042702 72 20 0.0 0.0 0.00 0.00 0.00 64 1012.4
20260902042203 72 20 0.0 0.0 0.00 0.00 0.00 64 1012.3
20260902041702 72 20 0.0 0.0 0.00 0.00 0.00 64 1012.2
20260902041203 72 20 0.0 0.0 0.00 0.00 0.00 64 1012.1
20260902040703 72 20 0.0 0.0 0.00 0.00 0.00 63 1012.1
20260902040202 72 20 0.0 0.0 0.00 0.00 0.00 63 1012.2
20260902035203 73 20 0.0 0.0 0.00 0.00 0.00 63 1011.8
20260902034702 73 19 0.0 0.0 0.00 0.00 0.00 62 1012.0
20260902034203 73 19 0.0 0.0 0.00 0.00 0.00 62 1012.2
20260902033702 73 19 0.0 0.0 0.00 0.00 0.00 62 1012.3
20260902033202 73 19 0.0 0.0 0.00 0.00 0.00 61 1012.5
20260902032203 73 19 0.0 0.0 0.00 0.00 0.00 61 1012.5
20260902031702 73 19 0.0 0.0 0.00 0.00 0.00 61 1012.7
20260902031202 73 19 0.0 0.0 0.00 0.00 0.00 60 1012.7
20260902030702 73 19 0.0 0.0 0.00 0.00 0.00 60 1012.8
20260902025703 74 19 0.0 0.0 0.00 0.00 0.00 61 1012.7
20260902025202 74 19 0.0 0.0 0.00 0.00 0.00 60 1012.6
20260902024703 74 19 0.0 0.0 0.00 0.00 0.00 59 1012.6
20260902024202 74 19 0.0 0.0 0.00 0.00 0.00 59 1012.5
20260902023202 74 19 0.0 0.0 0.00 0.00 0.00 59 1012.4
20260902022703 74 19 0.0 0.0 0.00 0.00 0.00 60 1012.4
20260902022202 75 19 0.0 0.0 0.00 0.00 0.00 60 1012.3
20260902021703 75 19 0.0 0.0 0.00 0.00 0.00 61 1012.3
20260902020703 75 19 0.0 0.0 0.00 0.00 0.00 62 1012.5
20260902020203 75 19 0.0 0.0 0.00 0.00 0.00 62 1012.5
20260902015703 75 19 0.0 0.0 0.00 0.00 0.00 61 1012.5
20260902015203 75 19 0.0 0.0 0.00 0.00 0.00 61 1012.4
20260902014703 75 19 0.0 0.0 0.00 0.00 0.00 62 1012.4
20260902014203 75 19 0.0 0.0 0.00 0.00 0.00 62 1012.3
20260902013702 75 19 0.0 0.0 0.00 0.00 0.00 61 1012.3
20260902013203 76 19 0.0 0.0 0.00 0.00 0.00 61 1012.4
20260902012703 76 19 0.0 0.0 0.00 0.00 0.00 61 1012.4
20260902011702 76 19 0.0 0.0 0.00 0.00 0.00 60 1012.3
20260902011202 76 19 0.0 0.0 0.00 0.00 0.00 59 1012.2
20260902010702 77 19 0.0 0.0 0.00 0.00 0.00 59 1012.2
20260902010203 77 19 0.0 0.0 0.00 0.00 0.00 58 1012.1
20260902005702 77 19 0.0 0.0 0.00 0.00 0.00 58 1012.0
20260902005202 77 19 0.0 0.0 0.00 0.00 0.00 58 1012.0
20260902004703 77 19 0.0 0.0 0.00 0.00 0.00 58 1012.0
20260902004203 78 19 0.0 0.0 0.00 0.00 0.00 57 1012.1
20260902003703 78 19 0.0 0.0 0.00 0.00 0.00 57 1012.1
20260902003203 78 19 0.0 0.0 0.00 0.00 0.00 57 1012.2
20260902002702 78 19 0.0 0.0 0.00 0.00 0.00 57 1012.3
20260902002202 78 19 0.0 0.0 0.00 0.00 0.00 56 1012.3
20260902001703 79 19 0.0 0.0 0.00 0.00 0.00 56 1012.3
20260902001203 79 19 0.0 0.0 0.00 0.00 0.00 55 1012.2
20260902000702 79 19 0.0 0.0 0.00 0.00 0.00 55 1012.3
20260901235704 79 19 0.0 0.0 0.00 0.00 0.00 54 1012.4
20260901235202 80 19 0.0 0.0 0.00 0.00 0.00 53 1012.5
20260901234202 80 19 0.0 0.0 0.00 0.00 0.00 53 1012.4
20260901233703 80 19 0.0 0.0 0.00 0.00 0.00 53 1012.5
20260901233203 80 19 0.0 0.0 0.00 0.00 0.00 53 1012.5
20260901232702 80 19 0.0 0.0 0.00 0.00 0.00 52 1012.5
20260901232203 81 20 0.0 0.0 0.00 0.00 0.00 53 1012.4
20260901231703 81 20 0.0 0.0 0.00 0.00 0.00 53 1012.5
20260901231203 81 20 0.0 0.0 0.00 0.00 0.00 53 1012.4
20260901230703 81 0 0.0 0.0 0.00 0.00 0.00 53 1012.6
20260901230203 81 0 0.0 0.0 0.00 0.00 0.00 54 1012.6
20260901225202 82 319 0.0 0.0 0.00 0.00 0.00 53 1012.5
20260901224703 82 319 0.0 0.0 0.00 0.00 0.00 52 1012.4
20260901224202 82 319 0.0 0.0 0.00 0.00 0.00 52 1012.3
20260901223702 82 319 0.0 0.0 0.00 0.00 0.00 52 1012.3
20260901223203 82 320 0.0 0.0 0.00 0.00 0.00 52 1012.3
20260901222202 83 321 0.0 0.0 0.00 0.00 0.00 51 1012.5
20260901221702 83 356 0.0 0.0 0.00 0.00 0.00 50 1012.4
20260901221202 83 20 0.0 0.0 0.00 0.00 0.00 50 1012.4
20260901220702 83 20 0.0 0.0 0.00 0.00 0.00 49 1012.4
20260901220202 83 20 0.0 0.0 0.00 0.00 0.00 50 1012.4
20260901215703 83 20 0.0 0.0 0.00 0.00 0.00 50 1012.4
20260901215202 83 20 0.0 0.0 0.00 0.00 0.00 48 1012.3
20260901214703 83 264 0.0 0.0 0.00 0.00 0.00 48 1012.4
20260901214202 83 264 0.0 0.0 0.00 0.00 0.00 47 1012.4
20260901213703 83 264 0.0 0.0 0.00 0.00 0.00 48 1012.4
20260901213203 83 264 0.0 0.0 0.00 0.00 0.00 48 1012.4
20260901212703 83 264 0.0 0.0 0.00 0.00 0.00 49 1012.4
20260901212203 83 264 0.0 0.0 0.00 0.00 0.00 46 1012.4
20260901211703 83 264 0.0 0.0 0.00 0.00 0.00 48 1012.4
20260901211203 83 264 0.0 0.0 0.00 0.00 0.00 48 1012.5
20260901210703 83 264 0.0 0.0 0.00 0.00 0.00 48 1012.5
20260901210203 83 8 0.0 0.0 0.00 0.00 0.00 48 1012.4
20260901205703 84 8 0.0 0.0 0.00 0.00 0.00 47 1012.3
20260901205203 84 8 0.0 0.0 0.00 0.00 0.00 48 1012.2
20260901204703 84 8 0.0 0.0 0.00 0.00 0.00 45 1012.4
20260901204202 85 8 0.0 0.0 0.00 0.00 0.00 44 1012.4
20260901203703 85 0 0.0 0.0 0.00 0.00 0.00 44 1012.5
20260901202703 86 0 0.0 0.0 0.00 0.00 0.00 43 1012.9
20260901202203 86 277 0.0 0.0 0.00 0.00 0.00 43 1012.8
20260901201703 86 28 0.0 0.0 0.00 0.00 0.00 43 1012.8
20260901200703 86 77 0.0 0.0 0.00 0.00 0.00 41 1012.8
20260901200203 86 331 0.0 0.0 0.00 0.00 0.00 44 1012.8
20260901195703 86 263 0.0 0.0 0.00 0.00 0.00 41 1013.0
20260901195203 86 288 0.0 0.0 0.00 0.00 0.00 43 1012.9
20260901193703 84 22 0.0 0.0 0.00 0.00 0.00 42 1013.0
20260901193203 84 26 0.0 0.0 0.00 0.00 0.00 44 1013.1
20260901192703 84 26 0.0 0.0 0.00 0.00 0.00 44 1013.1
20260901192203 84 26 0.0 0.0 0.00 0.00 0.00 44 1013.2
20260901191203 84 0 0.0 0.0 0.00 0.00 0.00 46 1013.2
20260901190703 84 7 0.0 0.0 0.00 0.00 0.00 44 1013.2
20260901190203 84 0 0.0 0.0 0.00 0.00 0.00 43 1013.0
20260901185703 84 263 0.0 0.0 0.00 0.00 0.00 46 1013.1
20260901184703 84 31 0.0 0.0 0.00 0.00 0.00 44 1013.1
20260901184203 84 8 0.0 0.0 0.00 0.00 0.00 42 1013.2
20260901182703 83 306 0.0 0.0 0.00 0.00 0.00 46 1013.2
20260901182203 82 222 0.0 0.0 0.00 0.00 0.00 50 1013.2
20260901181703 82 301 0.0 0.0 0.00 0.00 0.00 50 1013.3
20260901181204 82 0 0.0 0.0 0.00 0.00 0.00 48 1013.5
20260901180203 81 0 0.0 0.0 0.00 0.00 0.00 46 1013.6
20260901175703 82 333 0.0 0.0 0.00 0.00 0.00 50 1013.7
20260901175203 81 73 0.0 0.0 0.00 0.00 0.00 49 1013.7
20260901174203 81 276 0.0 0.0 0.00 0.00 0.00 56 1013.8
20260901173203 80 342 0.0 0.0 0.00 0.00 0.00 56 1013.8
20260901172704 80 339 0.0 0.0 0.00 0.00 0.00 57 1013.8
20260901172203 80 295 0.0 0.0 0.00 0.00 0.00 59 1014.0
20260901171203 80 247 0.0 0.0 0.00 0.00 0.00 61 1013.9
20260901170704 79 267 0.0 0.0 0.00 0.00 0.00 61 1013.9
20260901170203 79 307 0.0 0.0 0.00 0.00 0.00 60 1014.0
20260901165703 78 308 0.0 0.0 0.00 0.00 0.00 62 1014.0
20260901164703 78 6 0.0 0.0 0.00 0.00 0.00 62 1014.0
20260901164203 78 31 0.0 0.0 0.00 0.00 0.00 62 1014.1
20260901163703 78 5 0.0 0.0 0.00 0.00 0.00 63 1014.0
20260901163203 77 6 0.0 0.0 0.00 0.00 0.00 63 1014.0
20260901162203 77 15 0.0 0.0 0.00 0.00 0.00 68 1014.0
20260901161703 76 18 0.0 0.0 0.00 0.00 0.00 70 1014.0
20260901160703 76 15 0.0 0.0 0.00 0.00 0.00 75 1013.7
20260901155703 75 54 0.0 0.0 0.00 0.00 0.00 79 1013.8
20260901155203 75 53 0.0 0.0 0.00 0.00 0.00 81 1013.9